Wind_Speed
8 8 8 7 6 6 8 9 8 6 6 5 5 10 15 17 18 19 19 19 19 19 18 17 14 14 15 15 15 15 15 16 17 17 18 17 16 15 15 14 14 15
9 10 10 10 9 7 7 9 9 7 6 5 5 8 11 13 15 17 19 20 21 20 19 17 15 15 16 16 15 15 16 17 17 18 17 16 16 16 15 14 14 14
11 11 11 11 11 9 8 9 10 9 6 6 6 6 8 9 9 12 16 20 21 21 20 18 17 16 16 15 15 15 16 16 17 17 16 16 17 16 15 14 12 12
12 12 12 12 12 11 10 9 10 10 8 7 6 6 6 6 6 7 10 15 19 20 20 18 16 15 14 14 14 15 15 15 15 16 16 16 16 15 15 14 13 13
13 13 13 12 12 12 12 10 10 11 11 8 7 7 6 6 7 7 9 12 15 16 16 14 13 13 13 13 13 14 14 14 14 15 16 16 15 15 15 15 16 16
14 15 15 14 13 13 12 12 11 12 12 11 9 9 8 8 8 8 9 10 12 12 12 12 12 12 12 12 12 12 12 13 14 15 16 16 15 15 15 16 18 18
16 17 17 16 15 14 14 13 12 12 13 12 11 11 11 10 10 9 9 10 10 11 11 12 11 11 11 11 11 12 13 14 15 16 16 16 17 17 17 18 19 20
20 20 20 20 18 15 15 14 14 14 14 13 13 12 12 12 12 11 11 11 11 11 11 12 12 11 11 10 11 11 12 13 14 15 15 16 18 19 20 20 20 20
24 24 24 23 21 19 17 16 16 15 14 15 15 13 13 14 14 13 13 12 12 12 12 12 12 11 10 9 9 9 10 10 11 12 13 15 17 19 20 21 22 21
27 28 29 28 26 23 20 18 17 17 16 16 16 14 14 15 15 14 14 13 13 12 12 12 12 11 10 9 8 8 8 8 8 10 11 13 14 16 17 19 20 20
28 28 30 31 30 27 24 22 20 19 18 17 17 17 16 15 15 15 15 14 14 13 13 12 12 11 10 9 9 8 7 7 7 8 9 10 11 12 13 14 16 17
28 27 27 29 30 27 24 24 23 22 21 20 19 19 18 17 16 16 16 16 16 15 14 13 12 12 11 10 9 9 7 7 7 6 6 7 7 8 10 11 12 13
30 29 26 23 25 26 23 21 22 23 23 22 22 21 20 19 18 18 18 17 17 17 16 15 14 13 12 11 11 10 9 8 8 7 6 5 5 5 7 8 10 11
31 32 27 21 19 22 24 23 22 22 23 23 22 22 22 21 21 21 21 20 19 19 18 17 15 13 12 12 11 11 10 10 10 9 8 6 4 4 4 5 7 9
33 33 31 28 23 20 23 26 25 24 25 26 24 24 23 23 23 24 24 23 22 21 20 19 17 15 14 13 12 12 11 12 12 11 10 8 5 4 4 4 6 8
40 37 36 35 32 27 24 26 28 28 28 28 28 28 27 26 26 27 26 26 25 24 23 21 20 19 18 16 15 14 13 14 14 13 12 10 8 6 5 5 6 8
46 43 40 39 38 37 32 27 28 31 32 32 32 31 30 30 30 30 29 29 29 28 26 25 23 23 22 21 19 18 17 16 15 14 14 12 11 9 7 6 6 8
48 47 44 41 40 41 38 33 30 31 32 34 36 36 35 34 34 33 32 32 32 31 30 28 27 26 25 24 23 22 21 20 19 17 16 15 14 12 10 8 7 7
52 50 47 44 42 42 42 40 39 36 34 33 37 40 39 37 37 36 36 35 35 34 33 31 30 29 28 27 26 25 24 23 22 21 19 18 16 15 13 12 10 9
56 53 50 46 44 43 44 44 44 44 41 37 36 40 41 39 38 38 38 37 37 36 36 34 33 32 31 29 28 27 26 25 24 23 22 20 19 17 16 15 13 12
56 55 52 48 45 44 45 46 45 47 47 44 39 38 40 41 40 38 38 39 39 39 39 38 36 35 34 32 30 28 27 26 26 25 25 23 21 20 18 17 16 15
55 55 52 50 47 45 44 46 47 47 48 48 45 41 41 41 40 39 39 40 42 43 43 41 39 38 37 35 32 31 29 28 28 27 27 26 25 23 21 19 18 17
54 54 52 50 49 48 46 46 47 48 48 48 48 46 43 41 39 41 43 44 46 46 45 43 41 40 40 38 35 34 32 30 30 30 29 28 27 25 23 21 20 19
53 53 51 50 50 50 49 48 47 48 49 49 48 48 48 44 40 41 43 44 45 46 46 44 43 41 41 41 39 38 36 34 33 33 31 30 29 27 25 23 22 21
54 53 52 51 51 51 51 51 50 49 49 50 49 48 49 47 43 40 42 42 42 44 46 46 43 40 40 41 42 42 40 37 36 36 33 31 30 28 27 25 24 23
56 55 54 53 53 53 53 54 53 51 51 51 51 49 49 48 44 41 42 43 42 43 45 46 45 41 40 41 42 44 43 40 38 38 35 34 33 31 29 28 26 25
Wind_Direction
305 315 323 330 324 293 269 263 267 268 258 243 209 203 208 213 218 221 222 224 225 225 226 226 226 225 224 224 225 226 227 230 233 233 233 234 232 230 228 228 226 225
291 300 306 312 322 319 293 272 266 267 259 242 208 193 200 209 219 225 226 227 226 225 225 226 222 219 222 225 225 225 226 228 229 229 227 227 227 225 223 224 222 220
280 289 295 299 306 313 311 291 274 266 254 242 225 204 201 204 213 222 222 222 224 225 225 224 219 216 221 224 223 223 224 225 225 224 222 220 222 223 222 222 221 218
271 277 281 288 293 297 305 303 288 277 264 246 233 226 216 207 207 206 202 204 210 215 218 219 214 211 214 218 219 220 222 224 225 225 225 223 221 222 223 221 218 215
264 268 269 272 277 283 291 296 292 284 275 259 237 231 228 216 209 201 189 189 196 202 206 208 207 206 209 213 218 224 227 230 232 233 234 233 228 224 222 219 217 217
248 254 258 262 264 268 276 284 287 283 277 269 251 236 230 225 218 210 200 192 191 194 199 204 208 211 214 217 222 230 235 238 239 239 239 238 234 230 227 225 224 225
237 239 242 246 252 259 263 269 276 279 278 271 258 243 233 229 225 221 215 205 199 198 203 209 214 218 222 225 231 235 239 242 244 244 242 239 237 235 233 231 230 232
239 238 235 233 234 241 251 258 264 271 275 271 263 252 239 231 226 222 221 218 212 209 210 215 219 221 224 226 231 236 239 242 246 248 246 241 238 236 235 233 233 234
245 243 238 233 229 227 232 244 253 259 267 268 265 258 245 236 228 221 219 218 216 213 213 214 216 217 215 211 216 227 236 240 242 245 244 240 238 237 235 233 232 232
248 247 241 233 228 223 220 226 238 246 254 262 263 259 249 242 233 224 217 214 213 211 208 207 207 208 205 201 201 211 226 234 236 237 236 236 238 239 237 234 232 233
246 247 242 233 225 222 219 217 223 232 239 247 256 255 251 246 237 226 217 210 207 206 203 202 202 202 202 201 196 197 213 229 233 234 235 235 240 243 244 243 239 236
252 249 246 238 231 227 226 223 222 224 227 233 243 249 248 245 239 229 218 210 204 201 202 203 202 202 203 203 200 200 208 223 232 238 242 244 246 244 245 247 245 240
264 261 256 249 240 237 238 238 235 231 227 226 230 239 243 241 236 231 223 214 206 201 201 205 204 203 203 204 207 209 208 214 227 238 243 250 256 251 243 241 240 238
272 273 269 264 255 246 243 246 249 248 244 238 232 234 239 239 235 231 227 220 212 205 203 204 205 205 206 208 210 211 210 213 223 232 236 240 249 255 247 232 227 228
274 276 275 272 269 259 247 243 246 251 253 251 247 242 241 241 239 234 230 226 220 214 208 206 206 208 209 211 212 212 212 215 221 227 229 229 229 231 231 218 212 214
272 275 276 276 274 271 265 251 244 244 246 246 247 247 245 244 244 240 237 233 229 224 218 212 211 213 214 215 216 216 216 219 223 223 222 222 221 218 217 210 203 201
271 273 275 278 278 277 275 263 245 242 244 241 240 243 243 244 245 244 242 240 237 233 229 222 218 218 219 219 219 218 219 221 223 221 217 217 217 217 215 206 196 193
269 270 273 275 277 278 278 270 255 247 247 245 240 238 239 240 241 243 243 242 241 239 236 233 229 225 223 222 222 222 221 222 222 219 217 215 214 215 216 211 198 190
269 269 270 271 272 274 274 273 268 261 257 251 242 237 236 236 237 239 240 240 240 240 240 239 237 234 230 227 225 225 224 224 224 222 219 215 211 211 214 214 208 199
268 268 268 268 269 269 269 270 270 268 265 258 246 238 236 236 236 238 241 241 240 239 239 239 239 239 237 234 231 230 228 228 227 226 224 220 216 212 213 214 212 208
265 266 266 266 265 265 266 266 267 267 266 264 257 245 237 237 237 238 242 245 246 245 241 238 237 238 240 239 237 235 233 231 231 231 229 227 223 218 216 216 215 213
263 264 264 263 262 261 261 262 263 264 264 265 264 255 241 237 237 236 238 243 247 250 249 243 238 236 237 239 239 238 236 234 234 233 231 230 228 223 220 219 219 218
263 263 261 260 259 258 257 258 260 261 261 262 264 261 252 246 241 235 233 235 240 246 250 248 243 239 237 237 238 238 237 236 236 235 234 232 230 227 225 223 223 224
263 262 261 259 258 256 255 255 257 259 260 260 261 261 260 259 254 242 233 233 238 242 244 245 245 245 241 237 236 237 237 237 238 239 238 237 235 232 230 229 228 228
265 263 262 259 257 256 255 254 254 256 258 258 259 260 260 261 260 249 237 235 238 240 240 239 241 244 240 234 233 235 234 235 238 240 241 242 241 238 236 233 233 232
271 269 266 263 259 257 255 255 254 255 256 256 257 259 259 259 259 252 244 241 239 238 238 236 236 241 241 235 233 234 232 232 235 238 240 242 241 241 239 236 235 236
Height
5780 5780 5780 5779 5779 5778 5777 5777 5776 5775 5774 5773 5772 5772 5774 5776 5777 5777 5777 5777 5778 5779 5780 5782 5783 5784 5785 5786 5787 5788 5788 5789 5789 5790 5791 5791 5791 5792 5792 5793 5793 5793
5778 5778 5778 5779 5778 5778 5777 5777 5776 5775 5774 5774 5773 5772 5773 5774 5775 5775 5775 5776 5777 5778 5779 5780 5782 5783 5783 5784 5785 5785 5786 5787 5788 5788 5789 5790 5790 5790 5791 5792 5793 5793
5778 5777 5777 5777 5777 5777 5776 5776 5775 5774 5774 5773 5773 5772 5772 5772 5773 5773 5774 5775 5776 5778 5778 5779 5780 5781 5782 5782 5783 5784 5784 5785 5786 5787 5787 5788 5789 5789 5790 5791 5792 5793
5777 5776 5775 5775 5775 5775 5774 5774 5774 5773 5773 5772 5772 5772 5771 5771 5771 5771 5772 5773 5775 5776 5777 5777 5778 5779 5780 5781 5782 5783 5783 5784 5784 5785 5786 5787 5788 5788 5789 5790 5790 5790
5775 5775 5774 5773 5773 5772 5772 5772 5772 5771 5771 5771 5771 5770 5770 5770 5770 5770 5771 5771 5773 5774 5774 5775 5776 5778 5779 5780 5781 5781 5782 5783 5783 5784 5785 5786 5787 5787 5788 5788 5787 5787
5772 5772 5771 5771 5770 5770 5770 5770 5770 5770 5770 5770 5770 5769 5769 5769 5769 5769 5770 5770 5770 5771 5772 5773 5775 5777 5778 5780 5780 5780 5781 5781 5782 5783 5784 5784 5785 5786 5786 5786 5786 5786
5767 5768 5767 5767 5767 5767 5767 5767 5768 5768 5768 5769 5769 5768 5768 5767 5768 5768 5768 5769 5769 5770 5771 5772 5774 5775 5777 5778 5779 5779 5779 5780 5780 5781 5782 5783 5783 5784 5784 5785 5785 5784
5763 5763 5764 5763 5763 5763 5764 5765 5766 5766 5767 5767 5767 5767 5767 5766 5766 5767 5767 5767 5768 5769 5770 5771 5772 5774 5775 5777 5777 5777 5778 5778 5779 5779 5780 5780 5781 5781 5782 5782 5783 5783
5759 5760 5760 5759 5759 5758 5759 5761 5763 5764 5765 5766 5766 5766 5766 5765 5765 5765 5766 5766 5767 5768 5769 5770 5771 5772 5774 5776 5776 5776 5776 5777 5778 5778 5778 5778 5778 5779 5779 5780 5780 5781
5753 5753 5754 5754 5755 5754 5754 5756 5759 5761 5763 5764 5764 5765 5765 5765 5764 5764 5764 5764 5765 5766 5767 5768 5769 5771 5773 5774 5775 5776 5776 5776 5777 5777 5776 5776 5776 5777 5777 5778 5778 5779
5747 5746 5747 5748 5750 5750 5749 5750 5753 5756 5759 5761 5762 5763 5763 5764 5764 5763 5763 5763 5763 5764 5765 5766 5768 5769 5771 5773 5774 5775 5775 5775 5776 5776 5775 5775 5775 5775 5775 5775 5776 5777
5746 5745 5745 5746 5747 5749 5748 5747 5749 5751 5754 5757 5759 5761 5762 5762 5763 5763 5762 5762 5761 5762 5763 5764 5766 5768 5769 5771 5772 5774 5775 5775 5774 5774 5774 5773 5773 5773 5773 5773 5773 5774
5744 5744 5745 5745 5747 5748 5749 5750 5750 5750 5752 5753 5755 5757 5759 5760 5761 5762 5761 5761 5760 5760 5761 5762 5764 5766 5767 5769 5770 5772 5773 5773 5773 5773 5773 5772 5772 5771 5771 5771 5772 5772
5742 5742 5743 5744 5745 5746 5748 5749 5751 5752 5753 5754 5754 5756 5758 5759 5759 5760 5760 5760 5760 5759 5759 5760 5761 5763 5765 5766 5768 5769 5770 5771 5771 5772 5772 5771 5770 5770 5770 5770 5770 5771
5739 5739 5740 5741 5742 5743 5744 5746 5749 5752 5753 5754 5755 5756 5757 5758 5758 5759 5759 5759 5759 5758 5758 5758 5759 5760 5762 5763 5765 5766 5767 5769 5769 5770 5770 5770 5770 5769 5769 5769 5769 5769
5734 5736 5737 5737 5739 5740 5742 5744 5746 5747 5749 5751 5752 5752 5754 5755 5756 5757 5758 5758 5758 5757 5756 5756 5756 5757 5759 5760 5762 5763 5764 5765 5766 5767 5768 5768 5768 5768 5768 5768 5768 5768
5728 5731 5733 5734 5735 5736 5738 5740 5742 5743 5744 5746 5747 5748 5749 5750 5751 5753 5755 5756 5756 5755 5755 5754 5754 5754 5755 5757 5758 5760 5761 5762 5763 5764 5765 5766 5766 5767 5767 5767 5768 5767
5722 5725 5728 5730 5731 5732 5733 5735 5737 5738 5739 5741 5742 5742 5743 5744 5745 5747 5749 5751 5752 5752 5753 5752 5752 5752 5752 5753 5755 5756 5758 5759 5760 5761 5762 5763 5764 5764 5765 5765 5766 5766
5715 5718 5722 5725 5727 5728 5729 5730 5731 5732 5734 5735 5736 5736 5737 5739 5741 5742 5744 5745 5747 5749 5750 5750 5750 5750 5750 5750 5752 5753 5755 5756 5757 5758 5759 5760 5761 5762 5762 5763 5763 5764
5708 5711 5715 5719 5722 5724 5725 5725 5726 5726 5727 5729 5730 5731 5733 5735 5737 5739 5741 5742 5743 5745 5746 5747 5747 5748 5748 5749 5749 5751 5752 5753 5754 5755 5756 5758 5758 5759 5760 5761 5761 5762
5701 5704 5708 5712 5716 5719 5719 5720 5720 5720 5721 5722 5724 5727 5729 5730 5732 5736 5739 5741 5742 5742 5742 5743 5744 5744 5745 5746 5747 5749 5750 5751 5752 5753 5754 5755 5756 5757 5758 5758 5759 5760
5694 5696 5700 5705 5709 5712 5714 5714 5714 5715 5716 5716 5718 5721 5724 5726 5728 5730 5733 5736 5738 5739 5739 5740 5741 5740 5740 5742 5744 5746 5747 5748 5750 5751 5751 5752 5753 5754 5755 5756 5757 5758
5685 5688 5693 5697 5701 5704 5707 5707 5707 5709 5711 5711 5712 5715 5717 5721 5723 5725 5725 5727 5729 5732 5735 5737 5738 5737 5736 5737 5739 5741 5743 5745 5746 5747 5748 5749 5750 5751 5752 5753 5754 5756
5677 5680 5684 5689 5693 5695 5699 5700 5701 5702 5704 5705 5707 5709 5711 5715 5718 5718 5718 5719 5722 5726 5729 5731 5733 5734 5734 5733 5734 5736 5739 5742 5743 5744 5745 5746 5747 5748 5749 5750 5751 5753
5667 5671 5676 5680 5684 5687 5690 5692 5694 5695 5697 5699 5701 5703 5705 5708 5711 5713 5714 5715 5717 5720 5721 5724 5727 5729 5730 5730 5729 5730 5734 5738 5739 5741 5743 5744 5745 5746 5746 5747 5748 5749
5656 5660 5665 5670 5674 5678 5681 5683 5686 5688 5690 5692 5695 5697 5699 5702 5704 5706 5708 5709 5712 5714 5715 5718 5721 5722 5724 5726 5726 5726 5728 5732 5735 5737 5739 5741 5741 5742 5743 5744 5745 5746